Time,TemperatureF,DewpointF,PressureIn,WindDirection,WindDirectionDegrees,WindSpeedMPH,WindSpeedGustMPH,Humidity,HourlyPrecipIn,Conditions,Clouds,dailyrainin,SoftwareType,DateUTC
2013-01-08 00:01:00,30.2,20.9,0.00,ESE,112,0.0,0.0,68,0.00,,---,0.00,VWS V13.01,2013-01-08 05:01:00,
2013-01-08 00:03:00,30.2,20.9,0.00,ESE,112,0.0,0.0,68,0.00,,---,0.00,VWS V13.01,2013-01-08 05:03:00,
2013-01-08 00:08:00,30.0,20.8,0.00,ESE,112,0.0,0.0,68,0.00,,---,0.00,VWS V13.01,2013-01-08 05:08:00,
2013-01-08 00:13:00,30.0,21.1,0.00,ESE,112,0.0,0.0,69,0.00,,---,0.00,VWS V13.01,2013-01-08 05:13:00,
2013-01-08 00:18:00,29.8,20.9,0.00,ESE,112,0.0,0.0,69,0.00,,---,0.00,VWS V13.01,2013-01-08 05:18:00,
2013-01-08 00:23:00,29.8,20.9,0.00,ESE,112,0.0,0.0,69,0.00,,---,0.00,VWS V13.01,2013-01-08 05:23:00,
2013-01-08 00:28:00,29.7,21.1,0.00,ESE,112,0.0,0.0,70,0.00,,---,0.00,VWS V13.01,2013-01-08 05:28:00,
2013-01-08 00:34:00,29.7,21.1,0.00,ESE,112,0.0,0.0,70,0.00,,---,0.00,VWS V13.01,2013-01-08 05:34:00,
2013-01-08 00:39:00,29.5,20.9,0.00,ESE,112,0.0,0.0,70,0.00,,---,0.00,VWS V13.01,2013-01-08 05:39:00,
2013-01-08 00:44:00,29.5,20.9,0.00,ESE,112,0.0,0.0,70,0.00,,---,0.00,VWS V13.01,2013-01-08 05:44:00,
2013-01-08 00:49:00,29.5,20.9,0.00,ESE,112,0.0,0.0,70,0.00,,---,0.00,VWS V13.01,2013-01-08 05:49:00,
2013-01-08 00:54:00,29.5,21.2,0.00,ESE,112,0.0,0.0,71,0.00,,---,0.00,VWS V13.01,2013-01-08 05:54:00,
2013-01-08 00:59:00,29.5,21.2,0.00,ESE,112,0.0,0.0,71,0.00,,---,0.00,VWS V13.01,2013-01-08 05:59:00,
2013-01-08 01:04:00,29.5,21.2,0.00,ESE,112,0.0,0.0,71,0.00,,---,0.00,VWS V13.01,2013-01-08 06:04:00,
2013-01-08 01:09:00,29.3,21.1,0.00,ESE,112,0.0,0.0,71,0.00,,---,0.00,VWS V13.01,2013-01-08 06:09:00,
2013-01-08 01:14:00,29.5,21.2,0.00,ESE,112,0.0,0.0,71,0.00,,---,0.00,VWS V13.01,2013-01-08 06:14:00,
2013-01-08 01:19:00,29.3,21.4,0.00,ESE,112,0.0,0.0,72,0.00,,---,0.00,VWS V13.01,2013-01-08 06:19:00,
2013-01-08 01:24:00,29.3,21.4,0.00,ESE,112,0.0,0.0,72,0.00,,---,0.00,VWS V13.01,2013-01-08 06:24:00,
2013-01-08 01:29:00,29.1,21.2,0.00,ESE,112,0.0,0.0,72,0.00,,---,0.00,VWS V13.01,2013-01-08 06:29:00,
2013-01-08 01:34:00,29.1,21.2,0.00,ESE,112,0.0,0.0,72,0.00,,---,0.00,VWS V13.01,2013-01-08 06:34:00,
2013-01-08 01:39:00,28.9,21.1,0.00,ESE,112,0.0,0.0,72,0.00,,---,0.00,VWS V13.01,2013-01-08 06:39:00,
2013-01-08 01:44:00,28.9,21.1,0.00,ESE,112,0.0,0.0,72,0.00,,---,0.00,VWS V13.01,2013-01-08 06:44:00,
2013-01-08 01:50:00,28.8,20.9,0.00,ESE,112,0.0,0.0,72,0.00,,---,0.00,VWS V13.01,2013-01-08 06:50:00,
2013-01-08 01:55:00,28.6,20.7,0.00,ESE,112,0.0,0.0,72,0.00,,---,0.00,VWS V13.01,2013-01-08 06:55:00,
2013-01-08 02:00:00,28.6,20.7,0.00,ESE,112,0.0,0.0,72,0.00,,---,0.00,VWS V13.01,2013-01-08 07:00:00,
2013-01-08 02:05:00,28.6,21.0,0.00,ESE,112,0.0,0.0,73,0.00,,---,0.00,VWS V13.01,2013-01-08 07:05:00,
2013-01-08 02:10:00,28.4,20.9,0.00,ESE,112,0.0,0.0,73,0.00,,---,0.00,VWS V13.01,2013-01-08 07:10:00,
2013-01-08 02:15:00,28.4,20.9,0.00,ESE,112,0.0,0.0,73,0.00,,---,0.00,VWS V13.01,2013-01-08 07:15:00,
2013-01-08 02:20:00,28.2,20.7,0.00,ESE,112,0.0,0.0,73,0.00,,---,0.00,VWS V13.01,2013-01-08 07:20:00,
2013-01-08 02:25:00,28.0,20.8,0.00,ESE,112,0.0,0.0,74,0.00,,---,0.00,VWS V13.01,2013-01-08 07:25:00,
2013-01-08 02:30:00,28.0,20.8,0.00,ESE,112,0.0,0.0,74,0.00,,---,0.00,VWS V13.01,2013-01-08 07:30:00,
2013-01-08 02:35:00,27.9,20.7,0.00,ESE,112,0.0,0.0,74,0.00,,---,0.00,VWS V13.01,2013-01-08 07:35:00,
2013-01-08 02:40:00,27.9,20.7,0.00,ESE,112,0.0,0.0,74,0.00,,---,0.00,VWS V13.01,2013-01-08 07:40:00,
2013-01-08 02:45:00,27.9,20.7,0.00,ESE,112,0.0,0.0,74,0.00,,---,0.00,VWS V13.01,2013-01-08 07:45:00,
2013-01-08 02:50:00,27.9,21.0,0.00,ESE,112,0.0,0.0,75,0.00,,---,0.00,VWS V13.01,2013-01-08 07:50:00,
2013-01-08 02:55:00,27.9,21.0,0.00,ESE,112,0.0,0.0,75,0.00,,---,0.00,VWS V13.01,2013-01-08 07:55:00,
2013-01-08 03:00:00,27.7,20.8,0.00,ESE,112,0.0,0.0,75,0.00,,---,0.00,VWS V13.01,2013-01-08 08:00:00,
2013-01-08 03:05:00,27.7,20.8,0.00,ESE,112,0.0,0.0,75,0.00,,---,0.00,VWS V13.01,2013-01-08 08:05:00,
2013-01-08 03:10:00,27.5,20.6,0.00,ESE,112,0.0,0.0,75,0.00,,---,0.00,VWS V13.01,2013-01-08 08:10:00,
2013-01-08 03:15:00,27.3,20.5,0.00,ESE,112,0.0,0.0,75,0.00,,---,0.00,VWS V13.01,2013-01-08 08:15:00,
2013-01-08 03:20:00,27.3,20.5,0.00,ESE,112,0.0,0.0,75,0.00,,---,0.00,VWS V13.01,2013-01-08 08:20:00,
2013-01-08 03:25:00,27.3,20.5,0.00,ESE,112,0.0,0.0,75,0.00,,---,0.00,VWS V13.01,2013-01-08 08:25:00,
2013-01-08 03:30:00,27.1,20.3,0.00,ESE,112,0.0,0.0,75,0.00,,---,0.00,VWS V13.01,2013-01-08 08:30:00,
2013-01-08 03:35:00,27.1,20.3,0.00,ESE,112,0.0,0.0,75,0.00,,---,0.00,VWS V13.01,2013-01-08 08:35:00,
2013-01-08 03:40:00,27.0,20.1,0.00,ESE,112,0.0,0.0,75,0.00,,---,0.00,VWS V13.01,2013-01-08 08:40:00,
2013-01-08 03:45:00,27.0,20.1,0.00,ESE,112,0.0,0.0,75,0.00,,---,0.00,VWS V13.01,2013-01-08 08:45:00,
2013-01-08 03:50:00,27.0,20.4,0.00,ESE,112,0.0,0.0,76,0.00,,---,0.00,VWS V13.01,2013-01-08 08:50:00,
2013-01-08 03:55:00,27.0,20.4,0.00,ESE,112,0.0,0.0,76,0.00,,---,0.00,VWS V13.01,2013-01-08 08:55:00,
2013-01-08 04:00:00,26.8,20.2,0.00,ESE,112,0.0,0.0,76,0.00,,---,0.00,VWS V13.01,2013-01-08 09:00:00,
2013-01-08 04:05:00,26.8,20.2,0.00,ESE,112,0.0,0.0,76,0.00,,---,0.00,VWS V13.01,2013-01-08 09:05:00,
2013-01-08 04:10:00,26.6,20.1,0.00,ESE,112,0.0,0.0,76,0.00,,---,0.00,VWS V13.01,2013-01-08 09:10:00,
2013-01-08 04:15:00,26.4,20.2,0.00,ESE,112,0.0,0.0,77,0.00,,---,0.00,VWS V13.01,2013-01-08 09:15:00,
2013-01-08 04:20:00,26.4,20.2,0.00,ESE,112,0.0,0.0,77,0.00,,---,0.00,VWS V13.01,2013-01-08 09:20:00,
2013-01-08 04:25:00,26.4,20.2,0.00,ESE,112,0.0,0.0,77,0.00,,---,0.00,VWS V13.01,2013-01-08 09:25:00,
2013-01-08 04:30:00,26.4,20.2,0.00,ESE,112,0.0,0.0,77,0.00,,---,0.00,VWS V13.01,2013-01-08 09:30:00,
2013-01-08 04:35:00,26.2,20.0,0.00,ESE,112,0.0,0.0,77,0.00,,---,0.00,VWS V13.01,2013-01-08 09:35:00,
2013-01-08 04:40:00,26.2,20.0,0.00,SW,216,0.0,0.0,77,0.00,,---,0.00,VWS V13.01,2013-01-08 09:40:00,
2013-01-08 04:45:00,26.2,20.0,0.00,SW,216,0.0,0.0,77,0.00,,---,0.00,VWS V13.01,2013-01-08 09:45:00,
2013-01-08 04:50:00,26.1,19.9,0.00,SW,216,0.0,0.0,77,0.00,,---,0.00,VWS V13.01,2013-01-08 09:50:00,
2013-01-08 04:55:00,26.1,19.9,0.00,SW,216,0.0,0.0,77,0.00,,---,0.00,VWS V13.01,2013-01-08 09:55:00,
2013-01-08 05:00:00,26.1,19.9,0.00,SW,216,0.0,0.0,77,0.00,,---,0.00,VWS V13.01,2013-01-08 10:00:00,
2013-01-08 05:05:00,26.1,19.9,0.00,SW,216,0.0,0.0,77,0.00,,---,0.00,VWS V13.01,2013-01-08 10:05:00,
2013-01-08 05:10:00,25.9,19.7,0.00,SW,216,0.0,0.0,77,0.00,,---,0.00,VWS V13.01,2013-01-08 10:10:00,
2013-01-08 05:15:00,25.9,19.7,0.00,SW,216,0.0,0.0,77,0.00,,---,0.00,VWS V13.01,2013-01-08 10:15:00,
2013-01-08 05:20:00,25.9,19.7,0.00,SW,216,0.0,0.0,77,0.00,,---,0.00,VWS V13.01,2013-01-08 10:20:00,
2013-01-08 05:25:00,25.9,19.7,0.00,SW,216,0.0,0.0,77,0.00,,---,0.00,VWS V13.01,2013-01-08 10:25:00,
2013-01-08 05:30:00,25.9,20.0,0.00,SW,216,0.0,0.0,78,0.00,,---,0.00,VWS V13.01,2013-01-08 10:30:00,
2013-01-08 05:35:00,25.7,19.8,0.00,SW,216,0.0,0.0,78,0.00,,---,0.00,VWS V13.01,2013-01-08 10:35:00,
2013-01-08 05:40:00,25.7,19.8,0.00,SW,216,0.0,0.0,78,0.00,,---,0.00,VWS V13.01,2013-01-08 10:40:00,
2013-01-08 05:45:00,25.7,19.8,0.00,SW,216,0.0,0.0,78,0.00,,---,0.00,VWS V13.01,2013-01-08 10:45:00,
2013-01-08 05:50:00,25.7,19.8,0.00,SW,216,0.0,0.0,78,0.00,,---,0.00,VWS V13.01,2013-01-08 10:50:00,
2013-01-08 05:55:00,25.7,19.8,0.00,SW,216,0.0,0.0,78,0.00,,---,0.00,VWS V13.01,2013-01-08 10:55:00,
2013-01-08 06:00:00,25.7,19.8,0.00,SW,216,0.0,0.0,78,0.00,,---,0.00,VWS V13.01,2013-01-08 11:00:00,
2013-01-08 06:05:00,25.7,20.1,0.00,SW,216,0.0,0.0,79,0.00,,---,0.00,VWS V13.01,2013-01-08 11:05:00,
2013-01-08 06:10:00,25.7,20.1,0.00,SW,216,0.0,0.0,79,0.00,,---,0.00,VWS V13.01,2013-01-08 11:10:00,
2013-01-08 06:15:00,25.7,20.1,0.00,SW,216,0.0,0.0,79,0.00,,---,0.00,VWS V13.01,2013-01-08 11:15:00,
2013-01-08 06:20:00,25.7,20.1,0.00,SW,216,0.0,0.0,79,0.00,,---,0.00,VWS V13.01,2013-01-08 11:20:00,
2013-01-08 06:25:00,25.7,20.1,0.00,SW,216,0.0,0.0,79,0.00,,---,0.00,VWS V13.01,2013-01-08 11:25:00,
2013-01-08 06:30:00,25.7,20.1,0.00,SW,217,0.0,0.0,79,0.00,,---,0.00,VWS V13.01,2013-01-08 11:30:00,
2013-01-08 06:35:00,25.7,20.1,0.00,SW,217,0.0,0.0,79,0.00,,---,0.00,VWS V13.01,2013-01-08 11:35:00,
2013-01-08 06:40:00,25.7,20.1,0.00,SW,217,0.0,0.0,79,0.00,,---,0.00,VWS V13.01,2013-01-08 11:40:00,
2013-01-08 06:45:00,25.5,19.9,0.00,SW,217,0.0,0.0,79,0.00,,---,0.00,VWS V13.01,2013-01-08 11:45:00,
2013-01-08 06:50:00,25.5,19.9,0.00,SW,217,0.0,0.0,79,0.00,,---,0.00,VWS V13.01,2013-01-08 11:50:00,
2013-01-08 06:55:00,25.3,19.8,0.00,SW,217,0.0,0.0,79,0.00,,---,0.00,VWS V13.01,2013-01-08 11:55:00,
2013-01-08 07:00:00,25.3,19.8,0.00,SW,216,0.0,0.0,79,0.00,,---,0.00,VWS V13.01,2013-01-08 12:00:00,
2013-01-08 07:05:00,25.3,19.8,0.00,SW,217,0.0,0.0,79,0.00,,---,0.00,VWS V13.01,2013-01-08 12:05:00,
2013-01-08 07:10:00,25.3,19.8,0.00,SW,216,0.0,0.0,79,0.00,,---,0.00,VWS V13.01,2013-01-08 12:10:00,
2013-01-08 07:15:00,25.3,19.8,0.00,SW,217,0.0,0.0,79,0.00,,---,0.00,VWS V13.01,2013-01-08 12:15:00,
2013-01-08 07:20:00,25.3,19.8,0.00,SW,216,0.0,0.0,79,0.00,,---,0.00,VWS V13.01,2013-01-08 12:20:00,
2013-01-08 07:25:00,25.3,19.8,0.00,SW,217,0.0,0.0,79,0.00,,---,0.00,VWS V13.01,2013-01-08 12:25:00,
2013-01-08 07:30:00,25.5,19.9,0.00,SW,216,0.0,0.0,79,0.00,,---,0.00,VWS V13.01,2013-01-08 12:30:00,
2013-01-08 07:35:00,25.7,20.4,0.00,SW,217,0.0,0.0,80,0.00,,---,0.00,VWS V13.01,2013-01-08 12:35:00,
2013-01-08 07:40:00,26.1,20.8,0.00,SW,217,0.0,0.0,80,0.00,,---,0.00,VWS V13.01,2013-01-08 12:40:00,
2013-01-08 07:45:00,26.4,21.1,0.00,SW,217,0.0,0.0,80,0.00,,---,0.00,VWS V13.01,2013-01-08 12:45:00,
2013-01-08 07:50:00,26.6,21.3,0.00,SW,217,0.0,0.0,80,0.00,,---,0.00,VWS V13.01,2013-01-08 12:50:00,
2013-01-08 07:55:00,27.0,21.6,0.00,SW,217,0.0,0.0,80,0.00,,---,0.00,VWS V13.01,2013-01-08 12:55:00,
2013-01-08 08:00:00,27.1,21.8,0.00,SW,217,0.0,0.0,80,0.00,,---,0.00,VWS V13.01,2013-01-08 13:00:00,
2013-01-08 08:05:00,27.5,22.5,0.00,SW,217,0.0,0.0,81,0.00,,---,0.00,VWS V13.01,2013-01-08 13:05:00,
2013-01-08 08:10:00,27.9,22.8,0.00,SW,217,0.0,0.0,81,0.00,,---,0.00,VWS V13.01,2013-01-08 13:10:00,
2013-01-08 08:15:00,28.0,23.0,0.00,North,8,0.0,0.0,81,0.00,,---,0.00,VWS V13.01,2013-01-08 13:15:00,
2013-01-08 08:20:00,28.0,23.0,0.00,West,271,0.0,0.0,81,0.00,,---,0.00,VWS V13.01,2013-01-08 13:20:00,
2013-01-08 08:25:00,28.2,23.1,0.00,West,271,0.0,0.0,81,0.00,,---,0.00,VWS V13.01,2013-01-08 13:25:00,
2013-01-08 08:30:00,28.4,23.6,0.00,West,276,0.0,0.0,82,0.00,,---,0.00,VWS V13.01,2013-01-08 13:30:00,
2013-01-08 08:35:00,28.8,24.0,0.00,West,276,0.0,0.0,82,0.00,,---,0.00,VWS V13.01,2013-01-08 13:35:00,
2013-01-08 08:40:00,29.1,24.3,0.00,West,276,0.0,0.0,82,0.00,,---,0.00,VWS V13.01,2013-01-08 13:40:00,
2013-01-08 08:45:00,29.5,24.7,0.00,WSW,258,0.0,0.0,82,0.00,,---,0.00,VWS V13.01,2013-01-08 13:45:00,
2013-01-08 08:50:00,29.8,25.0,0.00,WSW,258,0.0,0.0,82,0.00,,---,0.00,VWS V13.01,2013-01-08 13:50:00,
2013-01-08 08:55:00,30.0,25.5,0.00,WSW,258,0.0,0.0,83,0.00,,---,0.00,VWS V13.01,2013-01-08 13:55:00,
2013-01-08 09:00:00,30.2,25.7,0.00,South,189,0.0,0.0,83,0.00,,---,0.00,VWS V13.01,2013-01-08 14:00:00,
2013-01-08 09:05:00,30.6,25.7,0.00,ESE,122,0.0,0.0,82,0.00,,---,0.00,VWS V13.01,2013-01-08 14:05:00,
2013-01-08 09:10:00,30.7,25.9,0.00,ESE,122,0.0,0.0,82,0.00,,---,0.00,VWS V13.01,2013-01-08 14:10:00,
2013-01-08 09:15:00,31.1,26.3,0.00,WNW,291,0.0,0.0,82,0.00,,---,0.00,VWS V13.01,2013-01-08 14:15:00,
2013-01-08 09:20:00,31.3,26.4,0.00,WNW,291,0.0,0.0,82,0.00,,---,0.00,VWS V13.01,2013-01-08 14:20:00,
2013-01-08 09:25:00,31.6,26.8,0.00,WNW,291,0.0,0.0,82,0.00,,---,0.00,VWS V13.01,2013-01-08 14:25:00,
2013-01-08 09:30:00,31.8,27.0,0.00,WNW,291,0.0,0.0,82,0.00,,---,0.00,VWS V13.01,2013-01-08 14:30:00,
2013-01-08 09:35:00,32.0,27.1,0.00,NW,320,0.0,0.0,82,0.00,,---,0.00,VWS V13.01,2013-01-08 14:35:00,
2013-01-08 09:40:00,32.5,27.7,0.00,NW,320,0.0,0.0,82,0.00,,---,0.00,VWS V13.01,2013-01-08 14:40:00,
2013-01-08 09:45:00,32.9,28.0,0.00,WSW,250,0.0,0.0,82,0.00,,---,0.00,VWS V13.01,2013-01-08 14:45:00,
2013-01-08 09:50:00,33.3,28.4,0.00,SW,215,0.0,0.0,82,0.00,,---,0.00,VWS V13.01,2013-01-08 14:50:00,
2013-01-08 09:55:00,33.8,28.6,0.00,SW,215,0.0,0.0,81,0.00,,---,0.00,VWS V13.01,2013-01-08 14:55:00,
2013-01-08 10:00:00,34.3,29.1,0.00,SW,218,0.0,0.0,81,0.00,,---,0.00,VWS V13.01,2013-01-08 15:00:00,
2013-01-08 10:05:00,34.9,29.4,0.00,SW,216,0.0,0.0,80,0.00,,---,0.00,VWS V13.01,2013-01-08 15:05:00,
2013-01-08 10:10:00,35.1,29.2,0.00,WNW,293,0.0,0.0,79,0.00,,---,0.00,VWS V13.01,2013-01-08 15:10:00,
2013-01-08 10:15:00,35.2,29.4,0.00,NW,320,0.0,0.0,79,0.00,,---,0.00,VWS V13.01,2013-01-08 15:15:00,
2013-01-08 10:20:00,35.8,29.6,0.00,NW,321,0.0,0.0,78,0.00,,---,0.00,VWS V13.01,2013-01-08 15:20:00,
2013-01-08 10:25:00,36.3,30.1,0.00,SSW,195,0.0,0.0,78,0.00,,---,0.00,VWS V13.01,2013-01-08 15:25:00,
2013-01-08 10:31:00,36.9,30.3,0.00,SSW,194,0.0,0.0,77,0.00,,---,0.00,VWS V13.01,2013-01-08 15:31:00,
2013-01-08 10:36:00,37.4,30.9,0.00,SE,139,0.0,0.0,77,0.00,,---,0.00,VWS V13.01,2013-01-08 15:36:00,
2013-01-08 10:41:00,38.3,30.8,0.00,ESE,123,0.0,0.0,74,0.00,,---,0.00,VWS V13.01,2013-01-08 15:41:00,
2013-01-08 10:46:00,39.2,31.3,0.00,WSW,251,0.0,0.0,73,0.00,,---,0.00,VWS V13.01,2013-01-08 15:46:00,
2013-01-08 10:51:00,39.6,31.3,0.00,WSW,257,0.0,0.0,72,0.00,,---,0.00,VWS V13.01,2013-01-08 15:51:00,
2013-01-08 10:56:00,39.9,31.3,0.00,West,268,0.0,0.0,71,0.00,,---,0.00,VWS V13.01,2013-01-08 15:56:00,
2013-01-08 11:01:00,40.5,31.5,0.00,SSW,211,0.0,0.0,70,0.00,,---,0.00,VWS V13.01,2013-01-08 16:01:00,
2013-01-08 11:06:00,41.0,30.9,0.00,SSW,211,0.0,0.0,67,0.00,,---,0.00,VWS V13.01,2013-01-08 16:06:00,
2013-01-08 11:11:00,41.7,31.6,0.00,WNW,300,0.0,0.0,67,0.00,,---,0.00,VWS V13.01,2013-01-08 16:11:00,
2013-01-08 11:16:00,42.6,30.9,0.00,NNW,341,0.0,0.0,63,0.00,,---,0.00,VWS V13.01,2013-01-08 16:16:00,
2013-01-08 11:21:00,43.3,30.4,0.00,SSE,161,0.0,0.0,60,0.00,,---,0.00,VWS V13.01,2013-01-08 16:21:00,
2013-01-08 11:26:00,43.9,30.5,0.00,SSE,166,3.1,3.1,59,0.00,,---,0.00,VWS V13.01,2013-01-08 16:26:00,
2013-01-08 11:31:00,44.2,30.0,0.00,SSW,203,2.7,3.6,57,0.00,,---,0.00,VWS V13.01,2013-01-08 16:31:00,
2013-01-08 11:36:00,44.8,29.2,0.00,SSW,209,2.2,3.6,54,0.00,,---,0.00,VWS V13.01,2013-01-08 16:36:00,
2013-01-08 11:41:00,45.0,28.4,0.00,SW,216,0.0,2.7,52,0.00,,---,0.00,VWS V13.01,2013-01-08 16:41:00,
2013-01-08 11:46:00,45.3,29.2,0.00,SSW,202,3.6,4.0,53,0.00,,---,0.00,VWS V13.01,2013-01-08 16:46:00,
2013-01-08 11:51:00,45.7,28.6,0.00,West,260,0.0,4.0,51,0.00,,---,0.00,VWS V13.01,2013-01-08 16:51:00,
2013-01-08 11:56:00,46.0,29.4,0.00,SSW,194,2.2,4.0,52,0.00,,---,0.00,VWS V13.01,2013-01-08 16:56:00,
2013-01-08 12:01:00,46.6,28.5,0.00,South,183,5.8,5.8,49,0.00,,---,0.00,VWS V13.01,2013-01-08 17:01:00,
2013-01-08 12:06:00,46.8,28.6,0.00,SE,143,5.4,6.3,49,0.00,,---,0.00,VWS V13.01,2013-01-08 17:06:00,
2013-01-08 12:12:00,46.9,28.3,0.00,South,188,3.1,6.3,48,0.00,,---,0.00,VWS V13.01,2013-01-08 17:12:00,
2013-01-08 12:17:00,47.3,28.6,0.00,SW,225,3.6,6.3,48,0.00,,---,0.00,VWS V13.01,2013-01-08 17:17:00,
2013-01-08 12:22:00,47.7,29.0,0.00,WNW,300,0.0,0.0,48,0.00,,---,0.00,VWS V13.01,2013-01-08 17:22:00,
2013-01-08 12:27:00,48.2,28.9,0.00,WNW,287,0.0,0.0,47,0.00,,---,0.00,VWS V13.01,2013-01-08 17:27:00,
2013-01-08 12:32:00,48.7,29.4,0.00,SE,136,0.0,3.1,47,0.00,,---,0.00,VWS V13.01,2013-01-08 17:32:00,
2013-01-08 12:37:00,49.5,30.1,0.00,SSE,153,0.0,3.1,47,0.00,,---,0.00,VWS V13.01,2013-01-08 17:37:00,
2013-01-08 12:42:00,49.6,29.7,0.00,NW,314,0.0,2.2,46,0.00,,---,0.00,VWS V13.01,2013-01-08 17:42:00,
2013-01-08 12:47:00,49.8,29.9,0.00,SSW,207,0.0,2.2,46,0.00,,---,0.00,VWS V13.01,2013-01-08 17:47:00,
2013-01-08 12:52:00,50.0,29.5,0.00,SSW,209,0.0,4.5,45,0.00,,---,0.00,VWS V13.01,2013-01-08 17:52:00,
2013-01-08 12:57:00,50.2,29.1,0.00,WSW,248,0.0,4.5,44,0.00,,---,0.00,VWS V13.01,2013-01-08 17:57:00,
2013-01-08 13:02:00,50.4,29.8,0.00,South,175,0.0,4.9,45,0.00,,---,0.00,VWS V13.01,2013-01-08 18:02:00,
2013-01-08 13:07:00,50.5,28.9,0.00,SSW,197,3.1,4.9,43,0.00,,---,0.00,VWS V13.01,2013-01-08 18:07:00,
2013-01-08 13:12:00,50.5,28.9,0.00,SW,218,3.1,4.9,43,0.00,,---,0.00,VWS V13.01,2013-01-08 18:12:00,
2013-01-08 13:17:00,51.1,29.4,0.00,SW,224,0.0,4.9,43,0.00,,---,0.00,VWS V13.01,2013-01-08 18:17:00,
2013-01-08 13:22:00,51.6,29.3,0.00,WNW,289,2.7,5.4,42,0.00,,---,0.00,VWS V13.01,2013-01-08 18:22:00,
2013-01-08 13:27:00,51.6,29.9,0.00,South,179,2.7,6.7,43,0.00,,---,0.00,VWS V13.01,2013-01-08 18:27:00,
2013-01-08 13:32:00,51.6,29.9,0.00,SE,144,0.0,6.7,43,0.00,,---,0.00,VWS V13.01,2013-01-08 18:32:00,
2013-01-08 13:37:00,51.8,30.6,0.00,SSW,208,4.9,6.7,44,0.00,,---,0.00,VWS V13.01,2013-01-08 18:37:00,
2013-01-08 13:42:00,52.2,30.9,0.00,NNW,339,4.0,4.9,44,0.00,,---,0.00,VWS V13.01,2013-01-08 18:42:00,
2013-01-08 13:47:00,52.5,31.2,0.00,SW,216,0.0,5.8,44,0.00,,---,0.00,VWS V13.01,2013-01-08 18:47:00,
2013-01-08 13:52:00,52.7,31.4,0.00,NW,325,2.7,5.8,44,0.00,,---,0.00,VWS V13.01,2013-01-08 18:52:00,
2013-01-08 13:57:00,52.7,31.4,0.00,West,278,4.0,5.8,44,0.00,,---,0.00,VWS V13.01,2013-01-08 18:57:00,
2013-01-08 14:02:00,52.9,31.0,0.00,WNW,303,3.6,6.3,43,0.00,,---,0.00,VWS V13.01,2013-01-08 19:02:00,
2013-01-08 14:07:00,52.7,31.4,0.00,WNW,298,5.4,6.3,44,0.00,,---,0.00,VWS V13.01,2013-01-08 19:07:00,
2013-01-08 14:12:00,52.7,32.0,0.00,NW,310,0.0,6.3,45,0.00,,---,0.00,VWS V13.01,2013-01-08 19:12:00,
2013-01-08 14:17:00,52.7,32.0,0.00,WNW,284,3.1,6.3,45,0.00,,---,0.00,VWS V13.01,2013-01-08 19:17:00,
2013-01-08 14:22:00,52.9,32.1,0.00,WNW,283,0.0,3.1,45,0.00,,---,0.00,VWS V13.01,2013-01-08 19:22:00,
2013-01-08 14:27:00,52.9,32.1,0.00,WSW,252,0.0,4.0,45,0.00,,---,0.00,VWS V13.01,2013-01-08 19:27:00,
2013-01-08 14:32:00,53.1,32.3,0.00,ENE,65,0.0,5.8,45,0.00,,---,0.00,VWS V13.01,2013-01-08 19:32:00,
2013-01-08 14:37:00,53.2,32.5,0.00,SW,214,5.4,6.3,45,0.00,,---,0.00,VWS V13.01,2013-01-08 19:37:00,
2013-01-08 14:42:00,53.4,32.1,0.00,NW,310,0.0,4.0,44,0.00,,---,0.00,VWS V13.01,2013-01-08 19:42:00,
2013-01-08 14:47:00,53.8,31.8,0.00,West,263,4.0,4.0,43,0.00,,---,0.00,VWS V13.01,2013-01-08 19:47:00,
2013-01-08 14:52:00,54.1,31.6,0.00,WSW,250,2.7,4.0,42,0.00,,---,0.00,VWS V13.01,2013-01-08 19:52:00,
2013-01-08 14:57:00,54.0,32.0,0.00,WSW,257,0.0,4.0,43,0.00,,---,0.00,VWS V13.01,2013-01-08 19:57:00,
2013-01-08 15:02:00,53.8,31.8,0.00,SW,232,0.0,4.0,43,0.00,,---,0.00,VWS V13.01,2013-01-08 20:02:00,
2013-01-08 15:07:00,53.4,32.1,0.00,West,276,0.0,4.0,44,0.00,,---,0.00,VWS V13.01,2013-01-08 20:07:00,
2013-01-08 15:12:00,53.2,32.5,0.00,NW,315,0.0,4.0,45,0.00,,---,0.00,VWS V13.01,2013-01-08 20:12:00,
2013-01-08 15:17:00,53.1,32.3,0.00,NW,315,0.0,4.0,45,0.00,,---,0.00,VWS V13.01,2013-01-08 20:17:00,
2013-01-08 15:22:00,52.9,32.7,0.00,NW,318,0.0,0.0,46,0.00,,---,0.00,VWS V13.01,2013-01-08 20:22:00,
2013-01-08 15:27:00,52.9,32.7,0.00,West,263,0.0,3.1,46,0.00,,---,0.00,VWS V13.01,2013-01-08 20:27:00,
2013-01-08 15:32:00,52.9,32.7,0.00,SSE,151,0.0,4.0,46,0.00,,---,0.00,VWS V13.01,2013-01-08 20:32:00,
2013-01-08 15:37:00,52.9,33.2,0.00,WNW,301,3.6,4.0,47,0.00,,---,0.00,VWS V13.01,2013-01-08 20:37:00,
2013-01-08 15:42:00,53.1,33.4,0.00,WNW,285,0.0,0.0,47,0.00,,---,0.00,VWS V13.01,2013-01-08 20:42:00,
2013-01-08 15:47:00,53.1,33.4,0.00,WNW,284,0.0,4.9,47,0.00,,---,0.00,VWS V13.01,2013-01-08 20:47:00,
2013-01-08 15:52:00,52.9,33.2,0.00,North,357,0.0,4.9,47,0.00,,---,0.00,VWS V13.01,2013-01-08 20:52:00,
2013-01-08 15:57:00,52.7,33.0,0.00,WNW,286,0.0,4.9,47,0.00,,---,0.00,VWS V13.01,2013-01-08 20:57:00,
2013-01-08 16:02:00,52.7,33.0,0.00,WSW,252,0.0,0.0,47,0.00,,---,0.00,VWS V13.01,2013-01-08 21:02:00,
2013-01-08 16:07:00,52.7,33.0,0.00,WSW,247,0.0,0.0,47,0.00,,---,0.00,VWS V13.01,2013-01-08 21:07:00,
2013-01-08 16:12:00,52.7,33.0,0.00,SSW,197,0.0,0.0,47,0.00,,---,0.00,VWS V13.01,2013-01-08 21:12:00,
2013-01-08 16:17:00,52.7,33.6,0.00,SW,235,0.0,0.0,48,0.00,,---,0.00,VWS V13.01,2013-01-08 21:17:00,
2013-01-08 16:22:00,52.5,32.9,0.00,SSW,202,0.0,2.7,47,0.00,,---,0.00,VWS V13.01,2013-01-08 21:22:00,
2013-01-08 16:27:00,52.5,33.4,0.00,SSW,206,0.0,2.7,48,0.00,,---,0.00,VWS V13.01,2013-01-08 21:27:00,
2013-01-08 16:32:00,52.5,33.4,0.00,South,181,0.0,2.7,48,0.00,,---,0.00,VWS V13.01,2013-01-08 21:32:00,
2013-01-08 16:37:00,52.5,33.4,0.00,SSW,209,0.0,2.7,48,0.00,,---,0.00,VWS V13.01,2013-01-08 21:37:00,
2013-01-08 16:42:00,52.3,33.2,0.00,WSW,240,0.0,0.0,48,0.00,,---,0.00,VWS V13.01,2013-01-08 21:42:00,
2013-01-08 16:47:00,52.3,33.2,0.00,SSW,199,0.0,0.0,48,0.00,,---,0.00,VWS V13.01,2013-01-08 21:47:00,
2013-01-08 16:52:00,52.2,33.6,0.00,WNW,288,0.0,2.7,49,0.00,,---,0.00,VWS V13.01,2013-01-08 21:52:00,
2013-01-08 16:57:00,52.2,33.6,0.00,SW,227,0.0,2.7,49,0.00,,---,0.00,VWS V13.01,2013-01-08 21:57:00,
2013-01-08 17:02:00,52.0,33.4,0.00,East,86,0.0,0.0,49,0.00,,---,0.00,VWS V13.01,2013-01-08 22:02:00,
2013-01-08 17:08:00,52.0,33.4,0.00,SE,130,0.0,0.0,49,0.00,,---,0.00,VWS V13.01,2013-01-08 22:08:00,
2013-01-08 17:13:00,51.8,33.3,0.00,SE,130,0.0,0.0,49,0.00,,---,0.00,VWS V13.01,2013-01-08 22:13:00,
2013-01-08 17:18:00,51.4,33.4,0.00,SE,130,0.0,0.0,50,0.00,,---,0.00,VWS V13.01,2013-01-08 22:18:00,
2013-01-08 17:23:00,51.1,33.1,0.00,SE,131,0.0,0.0,50,0.00,,---,0.00,VWS V13.01,2013-01-08 22:23:00,
2013-01-08 17:28:00,50.5,33.1,0.00,SE,131,0.0,0.0,51,0.00,,---,0.00,VWS V13.01,2013-01-08 22:28:00,
2013-01-08 17:33:00,50.0,33.1,0.00,SE,130,0.0,0.0,52,0.00,,---,0.00,VWS V13.01,2013-01-08 22:33:00,
2013-01-08 17:38:00,49.3,32.4,0.00,SE,130,0.0,0.0,52,0.00,,---,0.00,VWS V13.01,2013-01-08 22:38:00,
2013-01-08 17:43:00,48.7,32.4,0.00,SE,130,0.0,0.0,53,0.00,,---,0.00,VWS V13.01,2013-01-08 22:43:00,
2013-01-08 17:48:00,48.6,32.7,0.00,SE,130,0.0,0.0,54,0.00,,---,0.00,VWS V13.01,2013-01-08 22:48:00,
2013-01-08 17:53:00,48.4,32.5,0.00,SE,130,0.0,0.0,54,0.00,,---,0.00,VWS V13.01,2013-01-08 22:53:00,
2013-01-08 17:58:00,48.0,33.1,0.00,SE,130,0.0,0.0,56,0.00,,---,0.00,VWS V13.01,2013-01-08 22:58:00,
2013-01-08 18:03:00,47.5,32.6,0.00,SE,130,0.0,0.0,56,0.00,,---,0.00,VWS V13.01,2013-01-08 23:03:00,
2013-01-08 18:08:00,47.3,32.8,0.00,SE,130,0.0,0.0,57,0.00,,---,0.00,VWS V13.01,2013-01-08 23:08:00,
2013-01-08 18:13:00,47.3,32.8,0.00,SE,130,0.0,0.0,57,0.00,,---,0.00,VWS V13.01,2013-01-08 23:13:00,
2013-01-08 18:18:00,46.9,33.0,0.00,SE,130,0.0,0.0,58,0.00,,---,0.00,VWS V13.01,2013-01-08 23:18:00,
2013-01-08 18:23:00,46.8,32.8,0.00,SE,130,0.0,0.0,58,0.00,,---,0.00,VWS V13.01,2013-01-08 23:23:00,
2013-01-08 18:28:00,46.6,32.6,0.00,SE,130,0.0,0.0,58,0.00,,---,0.00,VWS V13.01,2013-01-08 23:28:00,
2013-01-08 18:33:00,46.4,32.9,0.00,SE,130,0.0,0.0,59,0.00,,---,0.00,VWS V13.01,2013-01-08 23:33:00,
2013-01-08 18:38:00,46.0,33.0,0.00,SE,130,0.0,0.0,60,0.00,,---,0.00,VWS V13.01,2013-01-08 23:38:00,
2013-01-08 18:43:00,45.9,33.2,0.00,SE,130,0.0,0.0,61,0.00,,---,0.00,VWS V13.01,2013-01-08 23:43:00,
2013-01-08 18:48:00,45.5,32.8,0.00,SE,130,0.0,0.0,61,0.00,,---,0.00,VWS V13.01,2013-01-08 23:48:00,
2013-01-08 18:53:00,45.5,33.2,0.00,SE,130,0.0,0.0,62,0.00,,---,0.00,VWS V13.01,2013-01-08 23:53:00,
2013-01-08 18:58:00,45.3,33.1,0.00,SE,130,0.0,0.0,62,0.00,,---,0.00,VWS V13.01,2013-01-08 23:58:00,
2013-01-08 19:03:00,45.1,33.3,0.00,SE,130,0.0,0.0,63,0.00,,---,0.00,VWS V13.01,2013-01-09 00:03:00,
2013-01-08 19:08:00,45.1,33.7,0.00,SE,130,0.0,0.0,64,0.00,,---,0.00,VWS V13.01,2013-01-09 00:08:00,
2013-01-08 19:13:00,45.1,34.1,0.00,SE,130,0.0,0.0,65,0.00,,---,0.00,VWS V13.01,2013-01-09 00:13:00,
2013-01-08 19:18:00,45.1,34.5,0.00,SE,130,0.0,0.0,66,0.00,,---,0.00,VWS V13.01,2013-01-09 00:18:00,
2013-01-08 19:23:00,45.1,34.5,0.00,SE,130,0.0,0.0,66,0.00,,---,0.00,VWS V13.01,2013-01-09 00:23:00,
2013-01-08 19:28:00,45.3,35.0,0.00,SE,130,0.0,0.0,67,0.00,,---,0.00,VWS V13.01,2013-01-09 00:28:00,
2013-01-08 19:33:00,45.3,35.0,0.00,SE,130,0.0,0.0,67,0.00,,---,0.00,VWS V13.01,2013-01-09 00:33:00,
2013-01-08 19:38:00,45.5,35.2,0.00,SE,130,0.0,0.0,67,0.00,,---,0.00,VWS V13.01,2013-01-09 00:38:00,
2013-01-08 19:43:00,45.5,35.2,0.00,SE,130,0.0,0.0,67,0.00,,---,0.00,VWS V13.01,2013-01-09 00:43:00,
2013-01-08 19:48:00,45.7,35.7,0.00,SE,130,0.0,0.0,68,0.00,,---,0.00,VWS V13.01,2013-01-09 00:48:00,
2013-01-08 19:53:00,45.9,35.9,0.00,SE,125,0.0,0.0,68,0.00,,---,0.00,VWS V13.01,2013-01-09 00:53:00,
2013-01-08 19:58:00,45.9,36.3,0.00,SE,125,0.0,0.0,69,0.00,,---,0.00,VWS V13.01,2013-01-09 00:58:00,
2013-01-08 20:03:00,45.9,36.3,0.00,SE,125,0.0,0.0,69,0.00,,---,0.00,VWS V13.01,2013-01-09 01:03:00,
2013-01-08 20:08:00,45.9,36.3,0.00,SE,125,0.0,0.0,69,0.00,,---,0.00,VWS V13.01,2013-01-09 01:08:00,
2013-01-08 20:13:00,45.7,35.7,0.00,SE,125,0.0,0.0,68,0.00,,---,0.00,VWS V13.01,2013-01-09 01:13:00,
2013-01-08 20:18:00,45.5,35.6,0.00,SE,125,0.0,0.0,68,0.00,,---,0.00,VWS V13.01,2013-01-09 01:18:00,
2013-01-08 20:23:00,45.1,35.2,0.00,SE,125,0.0,0.0,68,0.00,,---,0.00,VWS V13.01,2013-01-09 01:23:00,
2013-01-08 20:28:00,44.6,34.3,0.00,SE,125,0.0,0.0,67,0.00,,---,0.00,VWS V13.01,2013-01-09 01:28:00,
2013-01-08 20:33:00,44.2,34.4,0.00,SE,125,0.0,0.0,68,0.00,,---,0.00,VWS V13.01,2013-01-09 01:33:00,
2013-01-08 20:39:00,43.9,34.0,0.00,SE,125,0.0,0.0,68,0.00,,---,0.00,VWS V13.01,2013-01-09 01:39:00,
2013-01-08 20:44:00,43.7,34.2,0.00,SE,125,0.0,0.0,69,0.00,,---,0.00,VWS V13.01,2013-01-09 01:44:00,
2013-01-08 20:49:00,43.3,33.9,0.00,SE,125,0.0,0.0,69,0.00,,---,0.00,VWS V13.01,2013-01-09 01:49:00,
2013-01-08 20:54:00,43.3,34.2,0.00,NNW,329,0.0,0.0,70,0.00,,---,0.00,VWS V13.01,2013-01-09 01:54:00,
2013-01-08 20:59:00,43.0,33.9,0.00,West,271,0.0,0.0,70,0.00,,---,0.00,VWS V13.01,2013-01-09 01:59:00,
2013-01-08 21:04:00,42.8,33.7,0.00,West,270,0.0,0.0,70,0.00,,---,0.00,VWS V13.01,2013-01-09 02:04:00,
2013-01-08 21:09:00,42.6,34.2,0.00,West,271,0.0,0.0,72,0.00,,---,0.00,VWS V13.01,2013-01-09 02:09:00,
2013-01-08 21:14:00,42.4,34.1,0.00,West,271,0.0,0.0,72,0.00,,---,0.00,VWS V13.01,2013-01-09 02:14:00,
2013-01-08 21:19:00,42.4,34.4,0.00,West,271,0.0,0.0,73,0.00,,---,0.00,VWS V13.01,2013-01-09 02:19:00,
2013-01-08 21:24:00,42.4,34.4,0.00,West,271,0.0,0.0,73,0.00,,---,0.00,VWS V13.01,2013-01-09 02:24:00,
2013-01-08 21:29:00,42.1,33.7,0.00,West,271,0.0,0.0,72,0.00,,---,0.00,VWS V13.01,2013-01-09 02:29:00,
2013-01-08 21:34:00,41.9,33.9,0.00,West,271,0.0,0.0,73,0.00,,---,0.00,VWS V13.01,2013-01-09 02:34:00,
2013-01-08 21:39:00,41.7,33.7,0.00,West,271,0.0,0.0,73,0.00,,---,0.00,VWS V13.01,2013-01-09 02:39:00,
2013-01-08 21:44:00,41.5,33.5,0.00,West,271,0.0,0.0,73,0.00,,---,0.00,VWS V13.01,2013-01-09 02:44:00,
2013-01-08 21:49:00,41.2,33.2,0.00,West,271,0.0,0.0,73,0.00,,---,0.00,VWS V13.01,2013-01-09 02:49:00,
2013-01-08 21:54:00,41.0,33.0,0.00,West,271,0.0,0.0,73,0.00,,---,0.00,VWS V13.01,2013-01-09 02:54:00,
2013-01-08 21:59:00,40.8,33.2,0.00,West,271,0.0,0.0,74,0.00,,---,0.00,VWS V13.01,2013-01-09 02:59:00,
2013-01-08 22:04:00,40.6,33.0,0.00,West,271,0.0,0.0,74,0.00,,---,0.00,VWS V13.01,2013-01-09 03:04:00,
2013-01-08 22:09:00,40.5,32.8,0.00,West,271,0.0,0.0,74,0.00,,---,0.00,VWS V13.01,2013-01-09 03:09:00,
2013-01-08 22:14:00,40.3,32.7,0.00,West,271,0.0,0.0,74,0.00,,---,0.00,VWS V13.01,2013-01-09 03:14:00,
2013-01-08 22:19:00,39.9,32.3,0.00,West,271,0.0,0.0,74,0.00,,---,0.00,VWS V13.01,2013-01-09 03:19:00,
2013-01-08 22:24:00,39.7,32.1,0.00,West,271,0.0,0.0,74,0.00,,---,0.00,VWS V13.01,2013-01-09 03:24:00,
2013-01-08 22:29:00,39.6,32.3,0.00,West,271,0.0,0.0,75,0.00,,---,0.00,VWS V13.01,2013-01-09 03:29:00,
2013-01-08 22:34:00,39.4,32.1,0.00,West,271,0.0,0.0,75,0.00,,---,0.00,VWS V13.01,2013-01-09 03:34:00,
2013-01-08 22:40:00,39.2,32.0,0.00,West,271,0.0,0.0,75,0.00,,---,0.00,VWS V13.01,2013-01-09 03:40:00,
2013-01-08 22:45:00,38.8,31.9,0.00,West,271,0.0,0.0,76,0.00,,---,0.00,VWS V13.01,2013-01-09 03:45:00,
2013-01-08 22:50:00,38.8,31.9,0.00,West,271,0.0,0.0,76,0.00,,---,0.00,VWS V13.01,2013-01-09 03:50:00,
2013-01-08 22:55:00,38.7,31.8,0.00,West,271,0.0,0.0,76,0.00,,---,0.00,VWS V13.01,2013-01-09 03:55:00,
2013-01-08 23:00:00,38.7,32.1,0.00,West,271,0.0,0.0,77,0.00,,---,0.00,VWS V13.01,2013-01-09 04:00:00,
2013-01-08 23:05:00,38.7,32.1,0.00,West,271,0.0,0.0,77,0.00,,---,0.00,VWS V13.01,2013-01-09 04:05:00,
2013-01-08 23:10:00,38.5,31.9,0.00,West,271,0.0,0.0,77,0.00,,---,0.00,VWS V13.01,2013-01-09 04:10:00,
2013-01-08 23:15:00,38.5,31.9,0.00,West,271,0.0,0.0,77,0.00,,---,0.00,VWS V13.01,2013-01-09 04:15:00,
2013-01-08 23:20:00,38.5,31.9,0.00,West,271,0.0,0.0,77,0.00,,---,0.00,VWS V13.01,2013-01-09 04:20:00,
2013-01-08 23:25:00,38.3,31.7,0.00,West,271,0.0,0.0,77,0.00,,---,0.00,VWS V13.01,2013-01-09 04:25:00,
2013-01-08 23:30:00,38.5,31.9,0.00,West,271,0.0,0.0,77,0.00,,---,0.00,VWS V13.01,2013-01-09 04:30:00,
2013-01-08 23:35:00,38.5,32.2,0.00,West,271,0.0,0.0,78,0.00,,---,0.00,VWS V13.01,2013-01-09 04:35:00,
2013-01-08 23:40:00,38.3,32.0,0.00,West,271,0.0,0.0,78,0.00,,---,0.00,VWS V13.01,2013-01-09 04:40:00,
2013-01-08 23:45:00,38.1,31.9,0.00,West,271,0.0,0.0,78,0.00,,---,0.00,VWS V13.01,2013-01-09 04:45:00,
2013-01-08 23:50:00,37.9,31.4,0.00,West,271,0.0,0.0,77,0.00,,---,0.00,VWS V13.01,2013-01-09 04:50:00,
2013-01-08 23:55:00,37.8,31.2,0.00,West,271,0.0,0.0,77,0.00,,---,0.00,VWS V13.01,2013-01-09 04:55:00,